GCTS Airport Information

Runway Information
Runway 08 Length 10499 ft width 148 ft
Elevation 187 ft Threshold 0 ft Heading 69
Runway 26 Length 10499 ft Width 148 ft
Elevation 209 ft Threshold 0 ft Heading 249
Airport Frequencies
Type APP Name APP Frequency 120.3 MHZ
Type ATIS Name ATIS Frequency 118.675 MHZ
Type GND Name GND Frequency 121.9 MHZ
Type TWR Name TWR Frequency 119 MHZ
Airport Navaids
Type NDB Name Tenerife Sur Frequency 317 KHZ
Type VOR-DME Name Tenerife Sur Frequency 116400 KHZ
Airport Weather Information & NOTAM
ADDS - METARS form results

(0851 UTC 19 September 2018)
Data provider http://aviationweather.gov/metar/data/
 
METAR text: GCTS 190830Z 05008KT 9999 FEW025 24/19 Q1017 NOSIG
Conditions at: GCTS (TENERIFE SUR/REI, ES) observed 0830 UTC 19 September 2018
Temperature: 24.0°C (75°F)
Dewpoint: 19.0°C (66°F) [RH = 74%]
Pressure (altimeter): 30.03 inches Hg (1017.0 mb)
Winds: from the NE (50 degrees) at 9 MPH (8 knots; 4.1 m/s)
Visibility: 6 or more miles (10+ km)
Ceiling: at least 12,000 feet AGL
Clouds: few clouds at 2500 feet AGL
Weather: no significant weather observed at this time

METAR text: GCTS 190800Z 06005KT 040V150 9999 FEW025 23/19 Q1017 NOSIG
Conditions at: GCTS (TENERIFE SUR/REI, ES) observed 0800 UTC 19 September 2018
Temperature: 23.0°C (73°F)
Dewpoint: 19.0°C (66°F) [RH = 78%]
Pressure (altimeter): 30.03 inches Hg (1017.0 mb)
Winds: from the ENE (60 degrees) at 6 MPH (5 knots; 2.6 m/s)
Visibility: 6 or more miles (10+ km)
Ceiling: at least 12,000 feet AGL
Clouds: few clouds at 2500 feet AGL
Weather: no significant weather observed at this time

Forecast for: GCTS (TENERIFE SUR/REI, ES)
Text: TAF GCTS 190800Z 1909/2009 09018KT 9999 FEW025 TX29/1914Z TN23/2005Z
Forecast period: 0900 to 2000 UTC 19 September 2018
Forecast type: FROM: standard forecast or significant change
Winds: from the E (90 degrees) at 21 MPH (18 knots; 9.3 m/s)
Visibility: 6 or more miles 10+ km)
Ceiling: at least 12,000 feet AGL
Clouds: few clouds at 2500 feet AGL
Weather: no significant weather forecast for this period
Text: TEMPO 1909/1911 04008KT
Forecast period: 0900 to 1100 UTC 19 September 2018
Forecast type: TEMPORARY: The following changes expected for less than half the time period
Winds: from the NE (40 degrees) at 9 MPH (8 knots; 4.1 m/s)
Visibility: missing
Ceiling: unknown
Clouds: missing
Weather: no significant weather forecast for this period
Text: BECMG 1920/1922 05008KT
Forecast period: 2000 UTC 19 September 2018 to 0900 UTC 20 September 2018
Forecast type: BECOMING: Conditions expected to become as follows by 2200 UTC 19 September 2018
Winds: from the NE (50 degrees) at 9 MPH (8 knots; 4.1 m/s)
Visibility: 6 or more miles 10+ km)
Ceiling: at least 12,000 feet AGL
Clouds: few clouds at 2500 feet AGL
Weather: no significant weather forecast for this period